TimeEST,TemperatureF,Dew PointF,Humidity,Sea Level PressureIn,VisibilityMPH,Wind Direction,Wind SpeedMPH,Gust SpeedMPH,PrecipitationIn,Events,Conditions,WindDirDegrees,DateUTC
12:52 AM,43.0,25.0,49,30.10,10.0,West,15.0,24.2,N/A,,Overcast,280,2013-01-10 05:52:00
1:52 AM,39.9,26.1,58,30.15,10.0,West,18.4,32.2,0.00,,Partly Cloudy,280,2013-01-10 06:52:00
2:52 AM,39.9,25.0,55,30.16,10.0,West,20.7,36.8,N/A,,Partly Cloudy,280,2013-01-10 07:52:00
3:52 AM,39.0,23.0,53,30.18,10.0,NW,17.3,32.2,N/A,,Clear,310,2013-01-10 08:52:00
4:52 AM,36.0,23.0,59,30.22,10.0,WNW,5.8,-,N/A,,Clear,290,2013-01-10 09:52:00
5:52 AM,37.0,21.0,52,30.27,10.0,NW,13.8,18.4,N/A,,Clear,320,2013-01-10 10:52:00
6:52 AM,36.0,19.9,52,30.30,10.0,NNW,12.7,-,N/A,,Clear,330,2013-01-10 11:52:00
7:52 AM,36.0,19.9,52,30.35,10.0,NW,10.4,-,N/A,,Clear,310,2013-01-10 12:52:00
9:52 AM,37.9,21.0,51,30.40,10.0,NW,17.3,23.0,N/A,,Clear,320,2013-01-10 14:52:00
10:52 AM,39.9,21.9,49,30.39,10.0,NW,12.7,32.2,N/A,,Clear,310,2013-01-10 15:52:00
11:52 AM,41.0,21.0,45,30.38,10.0,NW,17.3,24.2,N/A,,Clear,310,2013-01-10 16:52:00
12:52 PM,41.0,21.0,45,30.38,10.0,NW,13.8,28.8,N/A,,Clear,310,2013-01-10 17:52:00
3:52 PM,41.0,21.0,45,30.44,10.0,NW,8.1,-,N/A,,Clear,320,2013-01-10 20:52:00
4:52 PM,39.0,21.0,49,30.46,10.0,NW,6.9,-,N/A,,Clear,320,2013-01-10 21:52:00
5:52 PM,35.1,21.0,57,30.47,10.0,NNW,12.7,-,N/A,,Clear,340,2013-01-10 22:52:00
6:52 PM,30.9,21.9,69,30.50,10.0,NE,4.6,-,N/A,,Clear,40,2013-01-10 23:52:00
7:52 PM,26.1,21.0,81,30.52,10.0,Calm,Calm,-,N/A,,Clear,0,2013-01-11 00:52:00
8:52 PM,27.0,21.0,78,30.55,10.0,Calm,Calm,-,N/A,,Clear,0,2013-01-11 01:52:00
9:52 PM,26.1,21.0,81,30.55,10.0,SW,3.5,-,N/A,,Clear,220,2013-01-11 02:52:00
10:52 PM,23.0,19.0,85,30.54,10.0,Calm,Calm,-,N/A,,Clear,0,2013-01-11 03:52:00
11:52 PM,23.0,19.9,88,30.55,10.0,SSW,3.5,-,N/A,,Clear,210,2013-01-11 04:52:00